Regional Weather Roundup
Issued by NWS Burlington, VT

Home | Current Version | Previous Version | Text Only | Print | Product List | Glossary On
Versions: 1 2 3 4 5 6 7 8 9 10 11 12 13 14 15 16 17 18 19 20 21 22 23 24 25 26 27 28 29 30 31 32 33 34 35 36 37 38 39 40 41 42 43 44 45 46 47 48 49 50
000
ASUS41 KBTV 181630
RWRBTV
VERMONT REGIONAL WEATHER ROUNDUP
NATIONAL WEATHER SERVICE BURLINGTON VT
1100 AM EST SAT NOV 18 2017

NOTE: "FAIR" INDICATES FEW OR NO CLOUDS BELOW 12,000 FEET WITH NO
SIGNIFICANT WEATHER AND/OR OBSTRUCTIONS TO VISIBILITY.

* THESE REPORTS ARE NOT UNDER NWS QUALITY CONTROL AND/OR DO NOT
  REPORT WEATHER SUCH AS PRECIPITATION AND FOG.

VTZ001>019-181700-
_____VERMONT_____


CITY           SKY/WX    TMP DP  RH WIND       PRES   REMARKS
BURLINGTON     CLOUDY    34  14  43 S13       29.74F WCI  25
MONTPELIER     CLOUDY    29  15  56 S3        29.82F
MORRISVILLE    CLOUDY    27  17  66 S7        29.79F WCI  19
ST. JOHNSBURY*   N/A     27  18  69 MISG      29.80F
LYNDONVILLE*   FAIR      26  18  70 E3        29.77F
MIDDLEBURY*    FAIR      33  18  55 S6        29.76F WCI  27
RUTLAND*       CLOUDY    35  14  42 SE14      29.76F WCI  26
SPRINGFIELD    CLOUDY    28  17  63 CALM      29.85F
HIGHGATE*      PTSUNNY   33  18  55 CALM      29.72F
NEWPORT*       FAIR      29  19  67 SW5       29.75F WCI  24
BENNINGTON     CLOUDY    41  25  53 CALM      29.77F
ISLAND POND*     N/A     28 N/A N/A SE1         N/A
GALLUP MILLS*    N/A     32 N/A N/A MISG        N/A
UNION VILLAGE*   N/A     28 N/A N/A MISG        N/A

_____LAKE CHAMPLAIN_____


CITY           SKY/WX    TMP DP  RH WIND       PRES   REMARKS
BURTON ISLAND*   N/A     34  21  60 SE8G15      N/A  WCI  27
COLCHESTER RF*   N/A     36  27  69 S31         N/A  WCI  22
DIAMOND ISL*     N/A     32  25  74 SE22        N/A  WCI  19

$$

NYZ007-026>031-035-052-083-087-181700-
_____NORTHERN NEW YORK_____


CITY           SKY/WX    TMP DP  RH WIND       PRES   REMARKS
PLATTSBURGH    CLOUDY    33  20  58 VRB6      29.72F WCI  28
SARANAC LAKE   CLOUDY    27  22  81 NE6       29.63F WCI  20
MASSENA        PTSUNNY   33  25  72 NE9       29.70F WCI  25
OGDENSBURG*    RAIN      33  26  74 NE6       29.63S WCI  27
POTSDAM*       MIX PCPN  30  21  69 NE5       29.65F WCI  25
STARK FALLS*     N/A     37 N/A N/A SE13        N/A  WCI  29
WATERTOWN      CLOUDY    42  33  70 E3        29.61F
FT DRUM        PTSUNNY   36  24  61 SE13      29.62S WCI  28
ALBANY         CLOUDY    33  18  53 S6        29.79F WCI  28
GLENS FALLS    CLOUDY    29  23  78 CALM      29.79F

$$
NHZ002-005-011-181700-
_____NEW HAMPSHIRE_____


CITY           SKY/WX    TMP DP  RH WIND       PRES   REMARKS
LEBANON        CLOUDY    28  18  66 CALM      29.83F
KEENE          CLOUDY    32  24  72 S3        29.87F
MT WASHINGTON  MOSUNNY   27  -2  28 SW32G38     N/A  WCI  10
PLYMOUTH       FAIR      33  16  49 CALM      29.83F
WHITEFIELD     CLOUDY    30  19  63 CALM      29.80F

$$

_____REGIONAL QUEBEC LOCATIONS_____


CITY           SKY/WX    TMP DP  RH WIND       PRES   REMARKS
MONTREAL       CLOUDY    32  16  51 NE10      29.74F WCI  24
QUEBEC CITY    CLOUDY    21  14  73 NE3       29.83F
SHERBROOKE     MOSUNNY   28  19  69 E3        29.77F

_____REGIONAL ONTARIO LOCATIONS_____


CITY           SKY/WX    TMP DP  RH WIND       PRES   REMARKS
OTTAWA         LGTSLEET  28  23  80 NE9       29.63F WCI  20

______KEY______
VSB  - VISIBILITY IN MILES
WCI  - WIND CHILL INDEX
HX   - HEAT INDEX
$$
NNNN




USA.gov is the U.S. government's official web portal to all federal, state and local government web resources and services.